• In Uzbekistan
  • List of Countries
  • For 7 days
  • Water Temperature
  • Weather Map
  • Weather Widgets
  • user-avatar
    Login

    Hourly Weather Muyinga

    Today, 21 October, Monday

    Time Temperature Precipitation Wind Pressure Humidity
    00:00 +16°C° 0 mm 0 mps 627 mmHg 88%
    01:00 +16°C° 0 mm 0 mps 627 mmHg 88%
    02:00 +15°C° 0 mm 0 mps 626 mmHg 89%
    03:00 +15°C° 0 mm 0 mps 626 mmHg 89%
    04:00 +15°C° 0 mm 0 mps 626 mmHg 89%
    05:00 +15°C° 0 mm 0 mps 626 mmHg 89%
    06:00 +17°C° 0 mm 0 mps 627 mmHg 85%
    07:00 +18°C° 0 mm 0 mps 628 mmHg 81%
    08:00 +20°C° 0 mm 0 mps 629 mmHg 76%
    09:00 +23°C° 0.3 mm 1 mps 629 mmHg 71%
    10:00 +25°C° 0.3 mm 2 mps 629 mmHg 65%
    11:00 +26°C° 0.3 mm 3 mps 629 mmHg 59%
    12:00 +26°C° 0.8 mm 3 mps 628 mmHg 60%
    13:00 +26°C° 0.8 mm 3 mps 628 mmHg 62%
    14:00 +26°C° 0.8 mm 3 mps 627 mmHg 63%
    15:00 +25°C° 1.1 mm 2 mps 626 mmHg 68%
    16:00 +25°C° 1.1 mm 1 mps 626 mmHg 73%
    17:00 +24°C° 1.1 mm 1 mps 626 mmHg 78%
    18:00 +22°C° 0.2 mm 1 mps 626 mmHg 80%
    19:00 +19°C° 0.2 mm 0 mps 626 mmHg 82%
    20:00 +18°C° 0.2 mm 0 mps 626 mmHg 84%
    21:00 +17°C° 0.2 mm 0 mps 626 mmHg 86%
    22:00 +19°C° 0.2 mm 1 mps 626 mmHg 87%
    23:00 +19°C° 0.2 mm 1 mps 626 mmHg 88%

    Tomorrow, 22 October, Tuesday

    Time Temperature Precipitation Wind Pressure Humidity
    00:00 +18°C° 0 mm 1 mps 626 mmHg 90%
    01:00 +16°C° 0 mm 0 mps 625 mmHg 91%
    02:00 +16°C° 0 mm 0 mps 625 mmHg 92%
    03:00 +15°C° 0.1 mm 0 mps 625 mmHg 92%
    04:00 +15°C° 0.1 mm 0 mps 625 mmHg 92%
    05:00 +15°C° 0.1 mm 0 mps 626 mmHg 93%
    06:00 +17°C° 0.3 mm 0 mps 627 mmHg 89%
    07:00 +18°C° 0.3 mm 0 mps 628 mmHg 85%
    08:00 +20°C° 0.3 mm 0 mps 629 mmHg 81%
    09:00 +21°C° 1.3 mm 0 mps 629 mmHg 76%
    10:00 +24°C° 1.3 mm 1 mps 629 mmHg 72%
    11:00 +25°C° 1.3 mm 2 mps 628 mmHg 68%
    12:00 +25°C° 1.4 mm 2 mps 628 mmHg 69%
    13:00 +25°C° 1.4 mm 2 mps 627 mmHg 69%
    14:00 +25°C° 1.4 mm 1 mps 626 mmHg 70%
    15:00 +24°C° 0.9 mm 1 mps 626 mmHg 74%
    16:00 +24°C° 0.9 mm 1 mps 626 mmHg 78%
    17:00 +21°C° 0.9 mm 0 mps 625 mmHg 82%
    18:00 +20°C° 0.6 mm 0 mps 626 mmHg 83%
    19:00 +21°C° 0.6 mm 1 mps 626 mmHg 84%
    20:00 +20°C° 0.6 mm 1 mps 626 mmHg 85%
    21:00 +19°C° 0 mm 1 mps 626 mmHg 86%
    22:00 +19°C° 0 mm 1 mps 626 mmHg 87%
    23:00 +19°C° 0 mm 1 mps 626 mmHg 88%

    Day after tomorrow, 23 October, Wednesday

    Time Temperature Precipitation Wind Pressure Humidity
    00:00 +18°C° 0 mm 1 mps 625 mmHg 90%
    01:00 +16°C° 0 mm 0 mps 625 mmHg 91%
    02:00 +15°C° 0 mm 0 mps 624 mmHg 92%
    03:00 +15°C° 0.1 mm 0 mps 625 mmHg 92%
    04:00 +15°C° 0.1 mm 0 mps 625 mmHg 92%
    05:00 +15°C° 0.1 mm 0 mps 625 mmHg 92%
    06:00 +16°C° 0.2 mm 0 mps 626 mmHg 89%
    07:00 +18°C° 0.2 mm 0 mps 627 mmHg 86%
    08:00 +19°C° 0.2 mm 0 mps 628 mmHg 83%
    09:00 +22°C° 0.7 mm 1 mps 628 mmHg 77%
    10:00 +24°C° 0.7 mm 1 mps 628 mmHg 71%
    11:00 +25°C° 0.7 mm 2 mps 628 mmHg 65%
    12:00 +25°C° 1.1 mm 2 mps 628 mmHg 65%
    13:00 +26°C° 1.1 mm 2 mps 627 mmHg 66%
    14:00 +26°C° 1.1 mm 2 mps 627 mmHg 66%
    15:00 +25°C° 1.2 mm 2 mps 626 mmHg 72%
    16:00 +24°C° 1.2 mm 1 mps 626 mmHg 77%
    17:00 +23°C° 1.2 mm 1 mps 626 mmHg 83%
    18:00 +22°C° 0.5 mm 1 mps 626 mmHg 84%
    19:00 +18°C° 0.5 mm 0 mps 626 mmHg 85%
    20:00 +17°C° 0.5 mm 0 mps 626 mmHg 86%
    21:00 +17°C° 0.1 mm 0 mps 626 mmHg 87%
    22:00 +19°C° 0.1 mm 1 mps 626 mmHg 88%
    23:00 +19°C° 0.1 mm 1 mps 626 mmHg 89%

    24 October, Thursday

    Time Temperature Precipitation Wind Pressure Humidity
    00:00 +16°C° 0.1 mm 0 mps 626 mmHg 90%
    01:00 +16°C° 0.1 mm 0 mps 626 mmHg 90%
    02:00 +16°C° 0.1 mm 0 mps 626 mmHg 91%
    03:00 +16°C° 0.5 mm 0 mps 626 mmHg 92%
    04:00 +16°C° 0.5 mm 0 mps 626 mmHg 93%
    05:00 +16°C° 0.5 mm 0 mps 627 mmHg 94%
    06:00 +17°C° 0.5 mm 0 mps 628 mmHg 89%
    07:00 +19°C° 0.5 mm 0 mps 629 mmHg 84%
    08:00 +20°C° 0.5 mm 0 mps 630 mmHg 80%
    09:00 +23°C° 1 mm 1 mps 629 mmHg 78%
    10:00 +23°C° 1 mm 2 mps 629 mmHg 76%
    11:00 +24°C° 1 mm 2 mps 629 mmHg 74%
    12:00 +24°C° 1.9 mm 2 mps 628 mmHg 75%
    13:00 +24°C° 1.9 mm 2 mps 628 mmHg 75%
    14:00 +24°C° 1.9 mm 2 mps 627 mmHg 76%
    15:00 +24°C° 1.6 mm 2 mps 627 mmHg 80%
    16:00 +23°C° 1.6 mm 1 mps 626 mmHg 83%
    17:00 +22°C° 1.6 mm 1 mps 626 mmHg 87%
    18:00 +19°C° 0.4 mm 0 mps 626 mmHg 87%
    19:00 +18°C° 0.4 mm 0 mps 626 mmHg 87%
    20:00 +17°C° 0.4 mm 0 mps 626 mmHg 87%
    21:00 +17°C° 0 mm 0 mps 626 mmHg 88%
    22:00 +16°C° 0 mm 0 mps 626 mmHg 90%
    23:00 +16°C° 0 mm 0 mps 626 mmHg 91%

    25 October, Friday

    Time Temperature Precipitation Wind Pressure Humidity
    00:00 +16°C° 0.3 mm 0 mps 626 mmHg 91%
    01:00 +15°C° 0.3 mm 0 mps 626 mmHg 92%
    02:00 +15°C° 0.3 mm 0 mps 626 mmHg 93%
    03:00 +15°C° 0.2 mm 0 mps 626 mmHg 93%
    04:00 +15°C° 0.2 mm 0 mps 626 mmHg 93%
    05:00 +15°C° 0.2 mm 0 mps 626 mmHg 93%
    06:00 +16°C° 0.1 mm 0 mps 627 mmHg 89%
    07:00 +18°C° 0.1 mm 0 mps 628 mmHg 84%
    08:00 +22°C° 0.1 mm 1 mps 629 mmHg 80%
    09:00 +23°C° 0.4 mm 1 mps 629 mmHg 75%
    10:00 +24°C° 0.4 mm 2 mps 629 mmHg 70%
    11:00 +25°C° 0.4 mm 2 mps 629 mmHg 66%
    12:00 +25°C° 0.6 mm 2 mps 629 mmHg 65%
    13:00 +25°C° 0.6 mm 2 mps 628 mmHg 65%
    14:00 +25°C° 0.6 mm 2 mps 627 mmHg 64%
    15:00 +25°C° 0.6 mm 2 mps 627 mmHg 70%
    16:00 +24°C° 0.6 mm 2 mps 626 mmHg 75%
    17:00 +23°C° 0.6 mm 1 mps 626 mmHg 81%
    18:00 +21°C° 0.2 mm 1 mps 626 mmHg 82%
    19:00 +20°C° 0.2 mm 1 mps 626 mmHg 83%
    20:00 +17°C° 0.2 mm 0 mps 626 mmHg 85%
    21:00 +16°C° 0 mm 0 mps 626 mmHg 86%
    22:00 +18°C° 0 mm 1 mps 626 mmHg 87%
    23:00 +18°C° 0 mm 1 mps 626 mmHg 89%

    26 October, Saturday

    Time Temperature Precipitation Wind Pressure Humidity
    00:00 +16°C° 0.2 mm 1 mps 626 mmHg 90%
    01:00 +15°C° 0.2 mm 0 mps 625 mmHg 91%
    02:00 +15°C° 0.2 mm 0 mps 625 mmHg 92%
    03:00 +15°C° 0.2 mm 0 mps 626 mmHg 91%
    04:00 +15°C° 0.2 mm 0 mps 626 mmHg 91%
    05:00 +15°C° 0.2 mm 0 mps 626 mmHg 90%
    06:00 +19°C° 0.1 mm 1 mps 627 mmHg 86%
    07:00 +20°C° 0.1 mm 1 mps 628 mmHg 81%
    08:00 +22°C° 0.1 mm 1 mps 629 mmHg 77%
    09:00 +23°C° 0.6 mm 2 mps 629 mmHg 74%
    10:00 +24°C° 0.6 mm 3 mps 629 mmHg 70%
    11:00 +25°C° 0.6 mm 3 mps 629 mmHg 66%
    12:00 +25°C° 0.8 mm 3 mps 628 mmHg 67%
    13:00 +25°C° 0.8 mm 3 mps 627 mmHg 67%
    14:00 +25°C° 0.8 mm 3 mps 627 mmHg 67%
    15:00 +25°C° 0.7 mm 2 mps 626 mmHg 71%
    16:00 +24°C° 0.7 mm 2 mps 626 mmHg 76%
    17:00 +23°C° 0.7 mm 1 mps 625 mmHg 81%
    18:00 +22°C° 0.4 mm 1 mps 625 mmHg 83%
    19:00 +20°C° 0.4 mm 1 mps 625 mmHg 86%
    20:00 +19°C° 0.4 mm 1 mps 625 mmHg 89%
    21:00 +18°C° 0.1 mm 1 mps 625 mmHg 90%
    22:00 +18°C° 0.1 mm 1 mps 625 mmHg 91%
    23:00 +18°C° 0.1 mm 1 mps 625 mmHg 92%

    27 October, Sunday

    Time Temperature Precipitation Wind Pressure Humidity
    00:00 +18°C° 0 mm 1 mps 625 mmHg 92%
    01:00 +16°C° 0 mm 1 mps 625 mmHg 92%
    02:00 +15°C° 0 mm 0 mps 624 mmHg 91%
    03:00 +15°C° 0.2 mm 0 mps 625 mmHg 92%
    04:00 +15°C° 0.2 mm 0 mps 625 mmHg 93%
    05:00 +15°C° 0.2 mm 0 mps 625 mmHg 93%
    06:00 +16°C° 0 mm 0 mps 626 mmHg 91%
    07:00 +17°C° 0 mm 0 mps 627 mmHg 88%
    08:00 +20°C° 0 mm 1 mps 628 mmHg 86%
    09:00 +22°C° 0.6 mm 1 mps 628 mmHg 80%
    10:00 +24°C° 0.6 mm 1 mps 628 mmHg 74%
    11:00 +25°C° 0.6 mm 1 mps 629 mmHg 68%
    12:00 +25°C° 0.9 mm 1 mps 628 mmHg 67%
    13:00 +25°C° 0.9 mm 1 mps 627 mmHg 67%
    14:00 +26°C° 0.9 mm 2 mps 626 mmHg 66%
    15:00 +25°C° 1.3 mm 1 mps 626 mmHg 72%
    16:00 +24°C° 1.3 mm 1 mps 625 mmHg 77%
    17:00 +21°C° 1.3 mm 0 mps 625 mmHg 83%
    18:00 +20°C° 0.1 mm 0 mps 625 mmHg 84%
    19:00 +20°C° 0.1 mm 1 mps 625 mmHg 86%
    20:00 +19°C° 0.1 mm 1 mps 625 mmHg 87%
    21:00 +18°C° 0 mm 1 mps 625 mmHg 88%
    22:00 +18°C° 0 mm 1 mps 625 mmHg 89%
    23:00 +18°C° 0 mm 1 mps 625 mmHg 90%
    Show more